This is the latest recevied weather packets stored in our database for station/object KF4WSW-13. If no packets are shown the sender has not sent any weather packets the latest 1 day(s).
| Time | Temp. | Humidity | Pressure | Rain* | Wind** | Luminosity | Snow |
|---|---|---|---|---|---|---|---|
| 1778035867 | 23.33° C | 86% | 1014.2 hPa | 0 mm | 0.89 m/s, 87° | 0 W/m² | - |
| 1778035565 | 23.33° C | 86% | 1014.3 hPa | 0 mm | 0.45 m/s, 325° | 0 W/m² | - |
| 1778035261 | 23.33° C | 86% | 1014.2 hPa | 0 mm | 0.45 m/s, 333° | 0 W/m² | - |
| 1778034957 | 23.33° C | 86% | 1014 hPa | 0 mm | 0 m/s | 0 W/m² | - |
| 1778034655 | 23.33° C | 86% | 1013.8 hPa | 0 mm | 0 m/s | 0 W/m² | - |
| 1778034352 | 23.33° C | 86% | 1013.9 hPa | 0 mm | 0.45 m/s, 205° | 0 W/m² | - |
| 1778034050 | 23.33° C | 86% | 1013.8 hPa | 0 mm | 0 m/s | 0 W/m² | - |
| 1778033747 | 23.89° C | 86% | 1013.6 hPa | 0 mm | 0 m/s | 0 W/m² | - |
| 1778033444 | 23.89° C | 85% | 1013.8 hPa | 0 mm | 0 m/s | 0 W/m² | - |
| 1778033142 | 23.89° C | 84% | 1013.9 hPa | 0 mm | 0.45 m/s, 289° | 0 W/m² | - |
| 1778032839 | 23.89° C | 84% | 1013.8 hPa | 0 mm | 0.89 m/s, 312° | 0 W/m² | - |
| 1778032536 | 23.89° C | 84% | 1013.8 hPa | 0 mm | 0.89 m/s, 289° | 0 W/m² | - |
| 1778032233 | 23.89° C | 84% | 1013.9 hPa | 0 mm | 0.45 m/s, 280° | 0 W/m² | - |
| 1778031930 | 23.89° C | 83% | 1013.5 hPa | 0 mm | 1.34 m/s, 296° | 0 W/m² | - |
| 1778031626 | 23.89° C | 82% | 1013.5 hPa | 0 mm | 0.45 m/s, 296° | 0 W/m² | - |
| 1778031325 | 23.89° C | 82% | 1013.4 hPa | 0 mm | 0.45 m/s, 285° | 0 W/m² | - |
| 1778031021 | 23.89° C | 82% | 1013.4 hPa | 0 mm | 0.45 m/s, 274° | 0 W/m² | - |
| 1778030717 | 23.89° C | 81% | 1013.5 hPa | 0 mm | 0 m/s | 0 W/m² | - |
| 1778030414 | 23.89° C | 81% | 1013.2 hPa | 0 mm | 0.45 m/s, 276° | 0 W/m² | - |
| 1778030112 | 23.89° C | 81% | 1013.3 hPa | 0 mm | 0.45 m/s, 282° | 0 W/m² | - |
| 1778029808 | 23.89° C | 81% | 1013.5 hPa | 0 mm | 0.45 m/s, 285° | 0 W/m² | - |
| 1778029508 | 23.89° C | 81% | 1013.4 hPa | 0 mm | 0.89 m/s, 302° | 0 W/m² | - |
| 1778029203 | 23.89° C | 81% | 1013.4 hPa | 0 mm | 0.45 m/s, 268° | 0 W/m² | - |
| 1778028901 | 23.89° C | 81% | 1013.4 hPa | 0 mm | 0.45 m/s, 287° | 0 W/m² | - |
| 1778028596 | 23.89° C | 80% | 1013.2 hPa | 0 mm | 0.45 m/s, 271° | 0 W/m² | - |
* Rain latest hour (hover to see other rain measurements)
** Current wind speed in m/s (hover to see current wind gust speed)